| time (UTC) | temp C | wind direction | speed KPH | gust KPH | rain 1hr cm | rain 24hr cm | rain mn cm | humidity % | barometer mb |
| 20260905230032 | 20 | 229 | 0.0 | 3.2 | 0.00 | 0.00 | 0.00 | 76 | 1010.7 |
| 20260905224535 | 20 | 229 | 0.0 | 1.6 | 0.00 | 0.00 | 0.00 | 73 | 1010.7 |
| 20260905223035 | 20 | 229 | 0.0 | 3.2 | 0.00 | 0.00 | 0.00 | 73 | 1010.6 |
| 20260905221531 | 20 | 229 | 1.6 | 3.2 | 0.00 | 0.00 | 0.00 | 72 | 1010.7 |
| 20260905220030 | 21 | 228 | 0.0 | 3.2 | 0.00 | 0.00 | 0.00 | 70 | 1010.5 |
| 20260905214529 | 21 | 252 | 0.0 | 4.8 | 0.00 | 0.00 | 0.00 | 67 | 1010.5 |
| 20260905213029 | 21 | 234 | 1.6 | 4.8 | 0.00 | 0.00 | 0.00 | 67 | 1010.3 |
| 20260905211528 | 21 | 298 | 0.0 | 4.8 | 0.00 | 0.00 | 0.00 | 65 | 1010.4 |
| 20260905210036 | 22 | 308 | 1.6 | 6.4 | 0.00 | 0.00 | 0.00 | 61 | 1010.1 |
| 20260905204528 | 22 | 319 | 1.6 | 6.4 | 0.00 | 0.00 | 0.00 | 62 | 1010.1 |
| 20260905203027 | 22 | 338 | 1.6 | 3.2 | 0.00 | 0.00 | 0.00 | 62 | 1010.0 |
| 20260905201535 | 22 | 302 | 1.6 | 8.0 | 0.00 | 0.00 | 0.00 | 59 | 1010.1 |
| 20260905200038 | 22 | 323 | 1.6 | 6.4 | 0.00 | 0.00 | 0.00 | 59 | 1010.0 |
| 20260905194525 | 22 | 276 | 1.6 | 6.4 | 0.00 | 0.00 | 0.00 | 58 | 1009.9 |
| 20260905193029 | 22 | 297 | 1.6 | 6.4 | 0.00 | 0.00 | 0.00 | 58 | 1010.0 |
| 20260905191525 | 22 | 185 | 1.6 | 6.4 | 0.00 | 0.00 | 0.00 | 59 | 1010.0 |
| 20260905190024 | 22 | 278 | 3.2 | 6.4 | 0.00 | 0.00 | 0.00 | 57 | 1010.1 |
| 20260905184531 | 22 | 169 | 3.2 | 6.4 | 0.00 | 0.00 | 0.00 | 57 | 1010.2 |
| 20260905183027 | 22 | 113 | 0.0 | 4.8 | 0.00 | 0.00 | 0.00 | 63 | 1010.3 |
| 20260905181523 | 22 | 302 | 3.2 | 6.4 | 0.00 | 0.00 | 0.00 | 61 | 1010.3 |
| 20260905180021 | 22 | 62 | 0.0 | 4.8 | 0.00 | 0.00 | 0.00 | 59 | 1010.5 |
| 20260905174530 | 23 | 154 | 1.6 | 8.0 | 0.00 | 0.00 | 0.00 | 57 | 1010.4 |
| 20260905173024 | 22 | 318 | 0.0 | 3.2 | 0.00 | 0.00 | 0.00 | 60 | 1010.4 |
| 20260905171518 | 22 | 294 | 1.6 | 6.4 | 0.00 | 0.00 | 0.00 | 61 | 1010.5 |
| 20260905170016 | 22 | 250 | 3.2 | 6.4 | 0.00 | 0.00 | 0.00 | 61 | 1010.5 |
| 20260905164514 | 22 | 322 | 1.6 | 4.8 | 0.00 | 0.00 | 0.00 | 67 | 1010.7 |
| 20260905163013 | 22 | 293 | 3.2 | 8.0 | 0.00 | 0.00 | 0.00 | 62 | 1010.9 |
| 20260905161511 | 21 | 220 | 1.6 | 6.4 | 0.00 | 0.00 | 0.00 | 66 | 1011.1 |
| 20260905160013 | 21 | 324 | 0.0 | 6.4 | 0.00 | 0.00 | 0.00 | 72 | 1011.1 |
| 20260905154504 | 20 | 236 | 1.6 | 6.4 | 0.00 | 0.00 | 0.00 | 70 | 1011.0 |
| 20260905153003 | 20 | 279 | 1.6 | 6.4 | 0.00 | 0.00 | 0.00 | 73 | 1010.9 |
| 20260905151502 | 20 | 268 | 1.6 | 6.4 | 0.00 | 0.00 | 0.00 | 72 | 1010.9 |
| 20260905150051 | 20 | 305 | 1.6 | 6.4 | 0.00 | 0.00 | 0.00 | 74 | 1010.9 |
| 20260905144552 | 19 | 275 | 1.6 | 11.3 | 0.00 | 0.00 | 0.00 | 74 | 1010.9 |
| 20260905143047 | 19 | 77 | 1.6 | 11.3 | 0.00 | 0.00 | 0.00 | 77 | 1010.8 |
| 20260905141607 | 18 | 308 | 1.6 | 6.4 | 0.00 | 0.00 | 0.00 | 77 | 1010.8 |
| 20260905140054 | 18 | 297 | 3.2 | 11.3 | 0.00 | 0.00 | 0.00 | 77 | 1010.9 |
| 20260905134547 | 18 | 331 | 1.6 | 4.8 | 0.00 | 0.00 | 0.00 | 80 | 1010.7 |
| 20260905133051 | 18 | 167 | 3.2 | 6.4 | 0.00 | 0.00 | 0.00 | 80 | 1010.7 |
| 20260905131552 | 17 | 278 | 0.0 | 4.8 | 0.00 | 0.00 | 0.00 | 84 | 1010.6 |
| 20260905130037 | 17 | 261 | 0.0 | 4.8 | 0.00 | 0.00 | 0.00 | 87 | 1010.5 |
| 20260905124536 | 16 | 197 | 1.6 | 4.8 | 0.00 | 0.00 | 0.00 | 88 | 1010.6 |
| 20260905123034 | 16 | 268 | 1.6 | 4.8 | 0.00 | 0.00 | 0.00 | 92 | 1010.8 |
| 20260905121534 | 16 | 251 | 0.0 | 3.2 | 0.00 | 0.00 | 0.00 | 93 | 1010.8 |
| 20260905120037 | 15 | 251 | 0.0 | 1.6 | 0.00 | 0.00 | 0.00 | 92 | 1010.8 |
| 20260905114555 | 15 | 252 | 0.0 | 0.0 | 0.00 | 0.00 | 0.00 | 92 | 1010.6 |
| 20260905113031 | 15 | 252 | 0.0 | 1.6 | 0.00 | 0.00 | 0.00 | 91 | 1010.5 |
| 20260905111531 | 15 | 252 | 0.0 | 0.0 | 0.00 | 0.00 | 0.00 | 91 | 1010.4 |
| 20260905110032 | 16 | 252 | 0.0 | 1.6 | 0.00 | 0.00 | 0.00 | 91 | 1010.3 |
| 20260905104533 | 16 | 252 | 0.0 | 3.2 | 0.00 | 0.00 | 0.00 | 91 | 1010.1 |
| 20260905103034 | 15 | 252 | 0.0 | 3.2 | 0.00 | 0.00 | 0.00 | 91 | 1009.8 |
| 20260905101529 | 15 | 252 | 1.6 | 3.2 | 0.00 | 0.00 | 0.00 | 92 | 1009.6 |
| 20260905100029 | 15 | 252 | 0.0 | 0.0 | 0.00 | 0.00 | 0.00 | 91 | 1009.6 |
| 20260905094525 | 16 | 252 | 0.0 | 0.0 | 0.00 | 0.00 | 0.00 | 91 | 1009.4 |
| 20260905093029 | 16 | 252 | 0.0 | 0.0 | 0.00 | 0.00 | 0.00 | 91 | 1009.4 |
| 20260905091523 | 16 | 252 | 0.0 | 1.6 | 0.00 | 0.00 | 0.00 | 91 | 1009.3 |
| 20260905090022 | 16 | 252 | 0.0 | 0.0 | 0.00 | 0.00 | 0.00 | 91 | 1009.3 |
| 20260905084519 | 16 | 252 | 0.0 | 0.0 | 0.00 | 0.00 | 0.00 | 90 | 1009.4 |
| 20260905083018 | 16 | 252 | 0.0 | 0.0 | 0.00 | 0.00 | 0.00 | 91 | 1009.4 |
| 20260905081517 | 17 | 252 | 0.0 | 0.0 | 0.00 | 0.00 | 0.00 | 91 | 1009.6 |
| 20260905080021 | 17 | 252 | 0.0 | 0.0 | 0.00 | 0.00 | 0.00 | 91 | 1009.7 |
| 20260905074517 | 17 | 252 | 0.0 | 0.0 | 0.00 | 0.00 | 0.00 | 91 | 1009.8 |
| 20260905073012 | 17 | 252 | 0.0 | 0.0 | 0.00 | 0.00 | 0.00 | 91 | 1009.7 |
| 20260905071511 | 17 | 252 | 0.0 | 0.0 | 0.00 | 0.00 | 0.00 | 90 | 1009.8 |
| 20260905070008 | 17 | 252 | 0.0 | 0.0 | 0.00 | 0.00 | 0.00 | 91 | 1009.9 |
| 20260905064507 | 17 | 252 | 0.0 | 0.0 | 0.00 | 0.00 | 0.00 | 91 | 1009.9 |
| 20260905063005 | 17 | 252 | 0.0 | 0.0 | 0.00 | 0.00 | 0.00 | 91 | 1010.0 |
| 20260905061502 | 17 | 252 | 0.0 | 0.0 | 0.00 | 0.00 | 0.00 | 91 | 1010.2 |
| 20260905060006 | 17 | 252 | 0.0 | 0.0 | 0.00 | 0.00 | 0.00 | 91 | 1010.2 |
| 20260905054604 | 17 | 252 | 0.0 | 0.0 | 0.00 | 0.00 | 0.00 | 90 | 1010.4 |
| 20260905053059 | 18 | 252 | 0.0 | 0.0 | 0.00 | 0.00 | 0.00 | 90 | 1010.6 |
| 20260905051609 | 18 | 252 | 0.0 | 0.0 | 0.00 | 0.00 | 0.00 | 91 | 1010.7 |
| 20260905050105 | 18 | 252 | 0.0 | 0.0 | 0.00 | 0.00 | 0.00 | 91 | 1011.0 |
| 20260905044558 | 18 | 252 | 0.0 | 0.0 | 0.00 | 0.08 | 0.00 | 90 | 1011.0 |
| 20260905043052 | 18 | 252 | 0.0 | 0.0 | 0.00 | 0.08 | 0.00 | 90 | 1010.9 |
| 20260905041552 | 18 | 252 | 0.0 | 0.0 | 0.00 | 0.08 | 0.00 | 90 | 1011.0 |
| 20260905040055 | 18 | 252 | 0.0 | 0.0 | 0.00 | 0.08 | 0.00 | 90 | 1010.9 |
| 20260905034605 | 18 | 252 | 0.0 | 1.6 | 0.00 | 0.15 | 0.08 | 90 | 1010.8 |
| 20260905033102 | 18 | 252 | 0.0 | 0.0 | 0.00 | 0.15 | 0.08 | 89 | 1010.5 |
| 20260905031548 | 18 | 252 | 0.0 | 1.6 | 0.00 | 0.15 | 0.08 | 89 | 1010.7 |
| 20260905030047 | 18 | 252 | 0.0 | 0.0 | 0.00 | 0.15 | 0.08 | 89 | 1010.8 |
| 20260905024550 | 18 | 252 | 0.0 | 0.0 | 0.00 | 0.15 | 0.08 | 89 | 1010.7 |
| 20260905023120 | 18 | 252 | 0.0 | 0.0 | 0.00 | 0.15 | 0.08 | 89 | 1010.8 |
| 20260905021545 | 18 | 252 | 0.0 | 0.0 | 0.00 | 0.15 | 0.08 | 88 | 1010.8 |
| 20260905020044 | 18 | 252 | 0.0 | 0.0 | 0.00 | 0.15 | 0.08 | 87 | 1010.8 |
| 20260905014541 | 18 | 252 | 0.0 | 1.6 | 0.00 | 0.53 | 0.08 | 86 | 1010.8 |
| 20260905013040 | 18 | 252 | 0.0 | 1.6 | 0.00 | 0.53 | 0.08 | 85 | 1010.7 |
| 20260905011546 | 19 | 252 | 0.0 | 0.0 | 0.00 | 0.53 | 0.08 | 84 | 1010.8 |
| 20260905010042 | 19 | 252 | 0.0 | 0.0 | 0.00 | 0.53 | 0.08 | 85 | 1010.7 |
| 20260905004536 | 20 | 252 | 0.0 | 0.0 | 0.00 | 0.53 | 0.08 | 84 | 1010.9 |
| 20260905003036 | 20 | 252 | 0.0 | 0.0 | 0.00 | 0.53 | 0.08 | 85 | 1010.6 |
| 20260905001536 | 20 | 252 | 0.0 | 0.0 | 0.00 | 0.53 | 0.08 | 84 | 1010.5 |
| 20260905000035 | 20 | 252 | 0.0 | 1.6 | 0.00 | 0.53 | 0.08 | 82 | 1010.3 |
| 20260904234536 | 20 | 252 | 0.0 | 0.0 | 0.00 | 0.53 | 0.08 | 81 | 1010.4 |
| 20260904233034 | 21 | 252 | 0.0 | 0.0 | 0.00 | 0.53 | 0.08 | 79 | 1010.3 |
| 20260904231535 | 21 | 252 | 0.0 | 0.0 | 0.00 | 0.53 | 0.08 | 79 | 1010.1 |